Regional Weather Roundup
Issued by NWS Grand Forks, ND

Home | Current Version | Previous Version | Text Only | Print | Product List | Glossary On
Versions: 1 2 3 4 5 6 7 8 9 10 11 12 13 14 15 16 17 18 19 20 21 22 23 24 25 26 27 28 29 30 31 32 33 34 35 36 37 38 39 40 41 42 43 44 45 46 47 48 49 50
603
ASUS43 KFGF 091231
RWRFGF
PRAIRIE TO PINES  WEATHER ROUNDUP
NATIONAL WEATHER SERVICE EASTERN NORTH DAKOTA/GRAND FORKS ND
600 AM CST FRI DEC 09 2016

 **SATELLITE DATA USED TO AUGMENT SKY COVER AT AUTOMATED STATIONS**
 *****  WEATHER ACROSS EASTERN NORTH DAKOTA  *****

CITY           SKY/WX    TMP DP  RH WIND       PRES   REMARKS
GRAND FORKS    CLOUDY     4  -3  73 W12       30.57R WCI -12
6HR MIN TEMP:   4; 6HR MAX TEMP:   8; 6HR PCP: TRACE;

GRAND FRKS AFB CLOUDY     1  -6  70 NW10      30.57R WCI -15
DEVILS LAKE    CLEAR     -9 -13  83 W6        30.54S WCI -22
6HR MIN TEMP:  -9; 6HR MAX TEMP:   2; 6HR PCP: TRACE;

FARGO          CLOUDY     8   1  73 W8        30.57S WCI  -4
WAHPETON ARPT  CLOUDY     3  -4  72 W9        30.58S WCI -11
$$

 ***** WEATHER ACROSS CENTRAL AND WESTERN NORTH DAKOTA  *****

CITY           SKY/WX    TMP DP  RH WIND       PRES   REMARKS
BISMARCK       CLEAR    -12 -16  82 CALM      30.56S
6HR MIN TEMP: -17; 6HR MAX TEMP:  -3;

MINOT          CLOUDY    -9 -13  83 W9        30.53F WCI -26
6HR MIN TEMP: -11; 6HR MAX TEMP:  -6;

JAMESTOWN      CLEAR     -8 -12  83 NW9       30.53S WCI -25
6HR MIN TEMP:  -8; 6HR MAX TEMP:  -5;

MINOT AFB      CLOUDY   -13 -19  76 W7        30.53F WCI -29
GARRISON         N/A    -16 -19  87 NW8       30.51F WCI -34
WILLISTON      CLOUDY   -16 -21  78 CALM      30.55F
6HR MIN TEMP: -19; 6HR MAX TEMP: -14;

DICKINSON      ICE FOG  -21 -25  81 CALM      30.42S VSB 1/2
6HR MIN TEMP: -21; 6HR MAX TEMP: -11;

HETTINGER      CLOUDY   -16 -19  87 CALM      30.43S
6HR MIN TEMP: -23; 6HR MAX TEMP: -16;

$$

 *****  OTHER AIRPORT OBSERVATIONS IN OUR AREA  *****

CITY           SKY/WX    TMP DP  RH WIND       PRES   REMARKS
WALHALLA         N/A      1   1 100 NW7       30.58R WCI -11
GRAFTON AIRPOR CLOUDY     5   0  78 NW8       30.60R WCI  -8
VALLEY CITY AR FAIR      -6  -9  84 NW8       30.55S WCI -21
CANDO          FAIR     -11 -17  77 W7        30.56S WCI -26
CAVALIER APRT    N/A      5   0  78 NW8       30.58R WCI  -8
GWINNER        FAIR      -2  -6  84 W10       30.55F WCI -19
SHEYENNE NWR     N/A     -1  -8  70 W6        29.95S WCI -13
ROLLA          FAIR     -13 -18  77 NW5       30.49F WCI -25
 ***** THE ABOVE OBSERVATIONS ARE NON NWS ARE NOT QUALITY
       CONTROLLED AND MAY MIS-REPORT RAIN FOR SNOW...
$$

  *****  WEATHER ACROSS NORTHERN MINNESOTA  *****

CITY           SKY/WX    TMP DP  RH WIND       PRES   REMARKS
FLAG ISLAND    CLOUDY     1  -2  85 W13       30.49S WCI -16
WARROAD        CLOUDY     3  -2  78 NW10      30.51S WCI -12
ROSEAU         CLOUDY     3  -2  78 W7        30.52S WCI  -9
HALLOCK        CLOUDY     5   1  85 N8        30.56R WCI  -8
THF RVR FALLS  FLURRIES   6   2  83 CALM      30.53S
6HR MIN TEMP:   5; 6HR MAX TEMP:   6; 6HR PCP: TRACE;

BAUDETTE       CLOUDY     4  -4  69 W18       30.48S WCI -16
6HR MIN TEMP:   2; 6HR MAX TEMP:   5;

WASKISH        CLOUDY     5   0  78 NW7       30.50S WCI  -7
CROOKSTON      CLOUDY     7   1  78 NW12      30.57R WCI  -9
STEPHEN NDAWN    N/A      7   1  78 VRB8        N/A  WCI  -6
GREENBUSH NDAW   N/A      3   1  92 N6          N/A  WCI  -8
$$
  *****  WEATHER ACROSS CENTRAL AND WEST MINNESOTA  *****

CITY           SKY/WX    TMP DP  RH WIND       PRES   REMARKS
FOSSTON        LGT SNOW   3   0  85 CALM      30.52S
BEMIDJI        CLOUDY     4   0  83 W5        30.49S WCI  -6
PARK RAPIDS    CLOUDY     7   0  73 NW8       30.48S WCI  -6
6HR MIN TEMP:   2; 6HR MAX TEMP:   9;

ELBOW LAKE     FLURRIES   2  -1  85 NW8       30.55S WCI -11
WADENA         CLOUDY     7   3  85 NW6       30.50R WCI  -3
DETROIT LAKES  FLURRIES   7   5  92 W6        30.51S WCI  -3
MOORHEAD       MIX PCPN   7   1  78 NW7       30.57S WCI  -5
FERGUS FALLS   FLURRIES   3   0  85 W5        30.60R WCI  -6
MORRIS MN      CLOUDY     3   0  85 W9        30.55R WCI -11
STAPLES        CLOUDY     7   3  85 W7        30.50R WCI  -5
$$
  *****  WEATHER ELSEWHERE ACROSS MINNESOTA  *****

CITY           SKY/WX    TMP DP  RH WIND       PRES   REMARKS
DULUTH         FLURRIES  12   6  77 NW12      30.42S WCI  -2
6HR MIN TEMP:  11; 6HR MAX TEMP:  13; 6HR PCP: TRACE;

INTRNTL FALLS  CLOUDY     7   1  76 W8        30.45F WCI  -6
6HR MIN TEMP:   7; 6HR MAX TEMP:  11; 6HR PCP: TRACE;

ELY            FLURRIES   9   5  85 W7        30.40F WCI  -3
CLOQUET        FLURRIES  12   7  79 NW6       30.44S WCI   3
WHEATON        CLOUDY     1  -2  85 W8        30.60S WCI -12
BRAINERD       MOCLDY     8   5  87 N5        30.49S WCI   0
6HR MIN TEMP:   8; 6HR MAX TEMP:  13; 6HR PCP: TRACE;

HIBBING        CLOUDY     6   2  83 W6        30.44S WCI  -4
6HR MIN TEMP:   5; 6HR MAX TEMP:  10; 6HR PCP: TRACE;

ALEXANDRIA     CLOUDY     5   2  87 W8        30.52R WCI  -8
6HR MIN TEMP:   1; 6HR MAX TEMP:   5;

SAINT CLOUD    CLEAR      7   4  87 W9        30.53R WCI  -7
6HR MIN TEMP:   7; 6HR MAX TEMP:  13;

MINNEAPOLIS    CLOUDY    14   9  80 W7        30.54S WCI   4
6HR MIN TEMP:  14; 6HR MAX TEMP:  18;

$$

  *****  WEATHER ACROSS SOUTH DAKOTA  *****

CITY           SKY/WX    TMP DP  RH WIND       PRES   REMARKS
SIOUX FALLS    PTCLDY    -1  -4  87 NW3       30.55F
6HR MIN TEMP:  -1; 6HR MAX TEMP:   4;

BROOKINGS      CLOUDY    -4  -7  87 W6        30.52S WCI -16
WATERTOWN      CLOUDY    -4  -8  83 NW5       30.50S WCI -15
6HR MIN TEMP:  -5; 6HR MAX TEMP:  -1;

HURON          CLOUDY    -4  -7  87 NW5       30.58S WCI -15
6HR MIN TEMP:  -5; 6HR MAX TEMP:  -1;

SISSETON         N/A     -2  -8  76 NW8       30.56R WCI -17
ABERDEEN       CLOUDY    -4  -9  79 W6        30.58F WCI -16
6HR MIN TEMP:  -9; 6HR MAX TEMP:  -4;

MITCHELL       CLOUDY     0  -4  83 NW5       30.60R WCI -10
PIERRE         CLOUDY     2  -2  83 E6        30.51F WCI  -9
6HR MIN TEMP:   2; 6HR MAX TEMP:   3;

MOBRIDGE       CLOUDY    -2  -8  76 N3        30.50S
RAPID CITY     CLOUDY    -1  -5  82 N10       30.32R WCI -17
6HR MIN TEMP:  -1; 6HR MAX TEMP:   2; 6HR PCP: TRACE;

$$

  *****  SOME WEATHER IN NEARBY STATES *****

CITY           SKY/WX    TMP DP  RH WIND       PRES   REMARKS
GLASGOW MT     CLOUDY    -4  -9  79 SE8       30.49S WCI -19
6HR MIN TEMP:  -7; 6HR MAX TEMP:  -2;

GREAT FALLS MT LGT SNOW  -3  -8  79 N3        30.28F
6HR MIN TEMP:  -4; 6HR MAX TEMP:  -3; 6HR PCP:  0.01;

CHEYENNE WY    CLOUDY    14   7  73 E6        29.99R WCI   5
6HR MIN TEMP:  10; 6HR MAX TEMP:  16;

SCOTTSBLUFF NE CLOUDY    16   7  67 SE13      30.11F WCI   2
6HR MIN TEMP:   6; 6HR MAX TEMP:  16; 6HR PCP: TRACE;

OMAHA NE       CLEAR      7   1  76 N3        30.63S
6HR MIN TEMP:   7; 6HR MAX TEMP:  12;

DES MOINES IA  CLEAR     11   5  77 NW7       30.60F WCI   0
6HR MIN TEMP:  10; 6HR MAX TEMP:  16;

DAVENPORT IA   CLOUDY    17  11  77 W13       30.56R WCI   4
6HR MIN TEMP:  16; 6HR MAX TEMP:  21;

CHICAGO IL     CLOUDY    22  17  81 W10       30.47R WCI  11
6HR MIN TEMP:  20; 6HR MAX TEMP:  22;

EAU CLAIRE WI  CLEAR     10   7  87 CALM      30.50S
6HR MIN TEMP:  10; 6HR MAX TEMP:  20;

LA CROSSE WI   CLOUDY    21  12  68 N12       30.52S WCI   9
6HR MIN TEMP:  21; 6HR MAX TEMP:  24; 6HR PCP: TRACE;

$$

  *****  SOME NATIONAL WEATHER *****

CITY           SKY/WX    TMP DP  RH WIND       PRES   REMARKS
LA GUARDIA NY  PTCLDY    34  18  52 W17       30.07R WCI  23
6HR MIN TEMP:  34; 6HR MAX TEMP:  36;

RALEIGH NC     PTCLDY    30  15  53 CALM      30.33R
6HR MIN TEMP:  30; 6HR MAX TEMP:  38;

ATLANTA GA     CLEAR     28  16  60 NW14      30.42R WCI  17
6HR MIN TEMP:  28; 6HR MAX TEMP:  35;

NEW ORLEANS LA PTCLDY    40  29  64 N14G22    30.50R
6HR MIN TEMP:  40; 6HR MAX TEMP:  46;

OKLAHOMA CITY  CLOUDY    23  12  62 E7        30.62S WCI  15
6HR MIN TEMP:  20; 6HR MAX TEMP:  28;

ALBUQUERQUE NM CLOUDY    26  18  71 CALM      30.34F
6HR MIN TEMP:  26; 6HR MAX TEMP:  29;

SALT LAKE CITY MOCLDY    30  26  85 W10       30.19R WCI  21
6HR MIN TEMP:  27; 6HR MAX TEMP:  33; 6HR PCP: TRACE;

LOS ANGELES CA MOCLDY    54  50  86 E3        30.25F
6HR MIN TEMP:  53; 6HR MAX TEMP:  59;

BOISE ID       CLOUDY   C1F1C2F2C3F3C4F4C5F5C6F6C7F7C8F8C9F9CaFaCbFbCcFcCd!



USA.gov is the U.S. government's official web portal to all federal, state and local government web resources and services.